Chetco River@Brookings

Start Stop
DateFlow
CFS
Gauge
Feet
DateFlow
CFS
Gauge
Feet
07/27/2021 12:3074-2.05
07/27/2021 11:3074-2.05
07/27/2021 10:3074-2.05
07/27/2021 09:3076-2.04
07/27/2021 08:3076-2.04
07/27/2021 07:3076-2.04
07/27/2021 06:3076-2.04
07/27/2021 05:3076-2.04
07/27/2021 04:3076-2.04
07/27/2021 03:3076-2.04
07/27/2021 02:3076-2.04
07/27/2021 01:3076-2.04
07/26/2021 19:3076-2.04
07/26/2021 18:3074-2.05
07/26/2021 15:3074-2.05
07/26/2021 14:3076-2.04
07/26/2021 13:3074-2.05
07/26/2021 12:3076-2.04
07/26/2021 11:3076-2.04
07/26/2021 10:3078-2.03
07/26/2021 05:3078-2.03
07/26/2021 04:3079-2.02
07/26/2021 03:3079-2.02
07/26/2021 02:3078-2.03
07/26/2021 01:3079-2.02
07/26/2021 00:3078-2.03
07/25/2021 23:3079-2.02
07/25/2021 22:3079-2.02
07/25/2021 21:3078-2.03
07/25/2021 15:3078-2.03
07/25/2021 14:3079-2.02
07/25/2021 13:3078-2.03
07/25/2021 12:3078-2.03
07/25/2021 11:3079-2.02
07/25/2021 10:3079-2.02
07/25/2021 09:3081-2.01
07/25/2021 08:3079-2.02
07/25/2021 05:3079-2.02
07/25/2021 04:3081-2.01
07/24/2021 17:3081-2.01
07/24/2021 16:3083-2
07/24/2021 15:3083-2
07/24/2021 14:3081-2.01
07/24/2021 12:3081-2.01
07/24/2021 11:3083-2
07/24/2021 07:3083-2
07/24/2021 06:3085-1.99
07/24/2021 00:3085-1.99
07/23/2021 23:3083-2
07/23/2021 22:3085-1.99
07/23/2021 17:3085-1.99
07/23/2021 16:3087-1.98
07/23/2021 15:3087-1.98
07/23/2021 14:3088-1.97
07/23/2021 06:3088-1.97
07/22/2021 23:3090-1.96
07/22/2021 19:3090-1.96
07/22/2021 18:3088-1.97
07/22/2021 17:3090-1.96
07/22/2021 15:3090-1.96
07/22/2021 14:3092-1.95
07/22/2021 13:3092-1.95
07/22/2021 12:3090-1.96
07/22/2021 11:3090-1.96
07/22/2021 10:3092-1.95
07/22/2021 08:3092-1.95
07/21/2021 21:3094-1.94
07/21/2021 20:3094-1.94
07/21/2021 19:3096-1.93
07/21/2021 18:3096-1.93
07/21/2021 17:3094-1.94
07/21/2021 16:3096-1.93
07/21/2021 13:3096-1.93
07/21/2021 12:3094-1.94
07/21/2021 11:3094-1.94
07/21/2021 10:3096-1.93
07/21/2021 09:3096-1.93
07/21/2021 08:3098-1.92
07/21/2021 07:3096-1.93
07/21/2021 06:3098-1.92
07/21/2021 05:3096-1.93
07/21/2021 04:3098-1.92
07/20/2021 14:3098-1.92
07/20/2021 13:3096-1.93
07/20/2021 12:30100-1.91
07/20/2021 06:30100-1.91
07/20/2021 05:30102-1.9
07/20/2021 02:30102-1.9
07/20/2021 01:30104-1.89
07/20/2021 00:30102-1.9
07/19/2021 21:30102-1.9
07/19/2021 20:30100-1.91
07/19/2021 19:30102-1.9
07/19/2021 18:30100-1.91
07/19/2021 17:30102-1.9
07/19/2021 11:30102-1.9
07/19/2021 10:30104-1.89
07/19/2021 09:30102-1.9
07/19/2021 08:30104-1.89
07/19/2021 05:30104-1.89
07/19/2021 04:30106-1.88
07/18/2021 20:30106-1.88
07/18/2021 19:30104-1.89
07/18/2021 18:30106-1.88
07/18/2021 17:30106-1.88
07/18/2021 16:30104-1.89
07/18/2021 13:30104-1.89
07/18/2021 12:30106-1.88
07/18/2021 07:30106-1.88
07/18/2021 06:30109-1.87
07/18/2021 01:30109-1.87
07/18/2021 00:30111-1.86
07/17/2021 23:30109-1.87
07/17/2021 11:30109-1.87
07/17/2021 10:30111-1.86
07/17/2021 09:30109-1.87
07/17/2021 08:30111-1.86
07/17/2021 06:30111-1.86
07/17/2021 05:30113-1.85
07/16/2021 21:30113-1.85
07/16/2021 20:30115-1.84
07/16/2021 19:30113-1.85
07/16/2021 18:30113-1.85
07/16/2021 17:30111-1.86
07/16/2021 16:30111-1.86
07/16/2021 15:30113-1.85
07/16/2021 08:30113-1.85
07/16/2021 07:30115-1.84
07/15/2021 23:30115-1.84
07/15/2021 22:30113-1.85
07/15/2021 18:30113-1.85
07/15/2021 17:30111-1.86
07/15/2021 16:30111-1.86
07/15/2021 15:30113-1.85
07/15/2021 14:30113-1.85
07/15/2021 13:30111-1.86
07/15/2021 12:30113-1.85
07/15/2021 10:30113-1.85
07/15/2021 09:30115-1.84
07/15/2021 08:30113-1.85
07/15/2021 06:30113-1.85
07/15/2021 05:30115-1.84
07/15/2021 02:30115-1.84
07/15/2021 01:30117-1.83
07/14/2021 20:30117-1.83
07/14/2021 19:30115-1.84
07/14/2021 17:30115-1.84
07/14/2021 16:30113-1.85
07/14/2021 15:30115-1.84
07/14/2021 09:30115-1.84
07/14/2021 08:30117-1.83
07/14/2021 06:30117-1.83
07/14/2021 05:30119-1.82
07/13/2021 21:30119-1.82
07/13/2021 20:30121-1.81
07/13/2021 19:30119-1.82
07/13/2021 18:30121-1.81
07/13/2021 15:30121-1.81
07/13/2021 14:30123-1.8
07/13/2021 13:30125-1.79
07/13/2021 12:30123-1.8
07/13/2021 07:30123-1.8
07/13/2021 06:30125-1.79
07/13/2021 04:30125-1.79
07/13/2021 03:30128-1.78
07/13/2021 00:30128-1.78
07/12/2021 23:30130-1.77
07/12/2021 21:30130-1.77
07/12/2021 20:30128-1.78
07/12/2021 17:30128-1.78
07/12/2021 16:30125-1.79
07/12/2021 15:30128-1.78
07/12/2021 14:30130-1.77
07/12/2021 13:30128-1.78
07/12/2021 11:30128-1.78
07/12/2021 10:30130-1.77
07/12/2021 09:30130-1.77
07/12/2021 08:30128-1.78
07/12/2021 07:30130-1.77
07/12/2021 06:30130-1.77
07/12/2021 05:30132-1.76
07/12/2021 03:30132-1.76
07/12/2021 02:30134-1.75
07/12/2021 01:30132-1.76
07/12/2021 00:30132-1.76
07/11/2021 23:30134-1.75
07/11/2021 21:30134-1.75
07/11/2021 20:30137-1.74
07/11/2021 15:30137-1.74
07/11/2021 14:30139-1.73
07/11/2021 13:30139-1.73
07/11/2021 12:30137-1.74
07/11/2021 10:30137-1.74
07/11/2021 09:30139-1.73
07/11/2021 08:30139-1.73
07/11/2021 07:30141-1.72
07/11/2021 03:30141-1.72
07/11/2021 02:30144-1.71
07/10/2021 23:30144-1.71
07/10/2021 22:30146-1.7
07/10/2021 21:30144-1.71
07/10/2021 20:30146-1.7
07/10/2021 18:30146-1.7
07/10/2021 17:30144-1.71
07/10/2021 16:30144-1.71
07/10/2021 15:30146-1.7
07/10/2021 13:30146-1.7
07/10/2021 12:30144-1.71
07/10/2021 11:30144-1.71
07/10/2021 10:30146-1.7
07/10/2021 09:30146-1.7
07/10/2021 08:30144-1.71
07/10/2021 07:30146-1.7
07/10/2021 06:30146-1.7
07/10/2021 05:30148-1.69
07/10/2021 03:30148-1.69
07/10/2021 02:30151-1.68
07/10/2021 01:30148-1.69
07/10/2021 00:30151-1.68
07/09/2021 21:30151-1.68
07/09/2021 20:30153-1.67
07/09/2021 19:30151-1.68
07/09/2021 18:30151-1.68
07/09/2021 17:30153-1.67
07/09/2021 16:30151-1.68
07/09/2021 13:30151-1.68
07/09/2021 12:30153-1.67
07/09/2021 09:30153-1.67
07/09/2021 08:30151-1.68
07/09/2021 07:30153-1.67
07/09/2021 06:30155-1.66
07/09/2021 04:30155-1.66
07/09/2021 03:30158-1.65
07/09/2021 02:30155-1.66
07/09/2021 01:30158-1.65
07/08/2021 23:30158-1.65
07/08/2021 22:30160-1.64
07/08/2021 20:30160-1.64
07/08/2021 19:30158-1.65
07/08/2021 18:30160-1.64
07/08/2021 16:30160-1.64
07/08/2021 15:30158-1.65
07/08/2021 14:30158-1.65
07/08/2021 13:30160-1.64
07/08/2021 12:30158-1.65
07/08/2021 11:30160-1.64
07/08/2021 06:30160-1.64
07/08/2021 05:30163-1.63
07/08/2021 04:30160-1.64
07/08/2021 03:30163-1.63
07/08/2021 02:30165-1.62
07/07/2021 15:30165-1.62
07/07/2021 14:30168-1.61
07/07/2021 13:30165-1.62
07/07/2021 10:30165-1.62
07/07/2021 09:30168-1.61
07/07/2021 08:30165-1.62
07/07/2021 07:30168-1.61
07/07/2021 06:30168-1.61
07/07/2021 05:30165-1.62
07/07/2021 04:30168-1.61
07/07/2021 03:30170-1.6
07/07/2021 02:30170-1.6
07/07/2021 01:30173-1.59
07/07/2021 00:30170-1.6
07/06/2021 23:30173-1.59
07/06/2021 22:30170-1.6
07/06/2021 21:30173-1.59
07/06/2021 20:30173-1.59
07/06/2021 19:30170-1.6
07/06/2021 18:30173-1.59
07/06/2021 17:30170-1.6
07/06/2021 16:30170-1.6
07/06/2021 15:30173-1.59
07/06/2021 10:30173-1.59
07/06/2021 09:30170-1.6
07/06/2021 08:30173-1.59
07/06/2021 06:30173-1.59
07/06/2021 05:30175-1.58
07/06/2021 01:30175-1.58
07/06/2021 00:30181-1.56
07/05/2021 23:30178-1.57
07/05/2021 20:30178-1.57
07/05/2021 19:30181-1.56
07/05/2021 17:30181-1.56
07/05/2021 16:30183-1.55
07/05/2021 15:30178-1.57
07/05/2021 14:30183-1.55
07/05/2021 13:30181-1.56
07/05/2021 12:30178-1.57
07/05/2021 11:30181-1.56
07/05/2021 07:30181-1.56
07/05/2021 06:30183-1.55
07/05/2021 05:30183-1.55
07/05/2021 04:30186-1.54
07/04/2021 22:30186-1.54
07/04/2021 21:30188-1.53
07/04/2021 18:30188-1.53
07/04/2021 17:30191-1.52
07/04/2021 16:30188-1.53
07/04/2021 07:30188-1.53
07/04/2021 06:30191-1.52
07/04/2021 03:30191-1.52
07/04/2021 02:30194-1.51
07/04/2021 01:30194-1.51
07/04/2021 00:30196-1.5
07/03/2021 21:30196-1.5
07/03/2021 20:30199-1.49
07/03/2021 19:30196-1.5
07/03/2021 18:30196-1.5
07/03/2021 17:30199-1.49
07/03/2021 14:30199-1.49
07/03/2021 13:30202-1.48
07/03/2021 12:30199-1.49
07/03/2021 10:30199-1.49
07/03/2021 09:30202-1.48
07/03/2021 08:30199-1.49
07/03/2021 06:30199-1.49
07/03/2021 05:30202-1.48
07/03/2021 03:30202-1.48
07/03/2021 02:30205-1.47
07/03/2021 01:30202-1.48
07/03/2021 00:30205-1.47
07/02/2021 23:30207-1.46
07/02/2021 22:30205-1.47
07/02/2021 21:30207-1.46
07/02/2021 18:30207-1.46
07/02/2021 17:30210-1.45
07/02/2021 14:30210-1.45
07/02/2021 13:30213-1.44
07/02/2021 12:30210-1.45
07/02/2021 11:30213-1.44
07/02/2021 10:30210-1.45
07/02/2021 09:30210-1.45
07/02/2021 08:30213-1.44
07/02/2021 02:30213-1.44
07/02/2021 01:30216-1.43
07/01/2021 23:30216-1.43
07/01/2021 22:30219-1.42
07/01/2021 21:30216-1.43
07/01/2021 20:30219-1.42
07/01/2021 19:30221-1.41
07/01/2021 18:30219-1.42
07/01/2021 17:30224-1.4
07/01/2021 16:30221-1.41
07/01/2021 06:30221-1.41
07/01/2021 01:30224-1.4
06/30/2021 23:30224-1.4
06/30/2021 22:30227-1.39
06/30/2021 21:30227-1.39
06/30/2021 20:30230-1.38
06/30/2021 19:30227-1.39
06/30/2021 18:30230-1.38
06/30/2021 16:30230-1.38
06/30/2021 15:30233-1.37
06/30/2021 14:30230-1.38
06/30/2021 11:30230-1.38
06/30/2021 10:30227-1.39
06/30/2021 09:30230-1.38
06/30/2021 08:30230-1.38
06/30/2021 07:30227-1.39
06/30/2021 06:30230-1.38
06/30/2021 05:30233-1.37
06/30/2021 04:30230-1.38
06/30/2021 02:30230-1.38
06/30/2021 01:30233-1.37
06/30/2021 00:30230-1.38
06/29/2021 23:30233-1.37
06/29/2021 22:30236-1.36
06/29/2021 20:30236-1.36
06/29/2021 19:30240-1.35
06/29/2021 18:30236-1.36
06/29/2021 17:30236-1.36
06/29/2021 16:30240-1.35
06/29/2021 15:30236-1.36
06/29/2021 13:30236-1.36
06/29/2021 12:30240-1.35
06/29/2021 11:30240-1.35
06/29/2021 10:30236-1.36
06/29/2021 09:30240-1.35
06/29/2021 08:30236-1.36
06/29/2021 06:30236-1.36
06/29/2021 05:30233-1.37
06/29/2021 04:30240-1.35
06/29/2021 03:30240-1.35
06/29/2021 02:30243-1.34
06/29/2021 01:30240-1.35
06/28/2021 16:30246-1.33
06/28/2021 15:30246-1.33
06/28/2021 14:30249-1.32
06/28/2021 13:30246-1.33
06/28/2021 12:30246-1.33
06/28/2021 11:30249-1.32
06/28/2021 10:30246-1.33
06/28/2021 08:30246-1.33
06/28/2021 07:30249-1.32
06/28/2021 06:30246-1.33
06/28/2021 05:30249-1.32
06/28/2021 04:30249-1.32
06/28/2021 03:30253-1.31
06/28/2021 01:30253-1.31
06/28/2021 00:30256-1.3
06/27/2021 23:30256-1.3
06/27/2021 22:30253-1.31
06/27/2021 21:30259-1.29
06/27/2021 17:30259-1.29
06/27/2021 16:30263-1.28
06/27/2021 15:30266-1.27
06/27/2021 14:30263-1.28

Start Stop